Terminal Aerodrome Forecast
Issued by NWS

Home | Current Version | Previous Version | Graphics & Text | Print | Product List | Glossary On
Versions: 1 2 3 4 5 6 7 8 9 10 11 12 13 14 15 16
000
FTUS43 KTOP 270657 AAA
TAFMHK
TAF AMD
KMHK 270657Z 2707/2806 10011KT 5SM RA VCTS BKN040CB OVC090
     FM270900 15009KT P6SM BKN020
     FM271600 16010KT P6SM VCTS BKN015CB
     FM271900 17010KT P6SM VCTS SCT020 BKN040CB=

USA.gov is the U.S. government's official web portal to all federal, state and local government web resources and services.